This is the latest recevied weather packets stored in our database for station/object N4LLZ-13. If no packets are shown the sender has not sent any weather packets the latest 10 day(s).
| Time | Temp. | Humidity | Pressure | Rain* | Wind** | Luminosity | Snow |
|---|---|---|---|---|---|---|---|
| 1787429049 | 29.44° C | 68% | 1013.6 hPa | 0 mm | - | - | - |
| 1787428748 | 29.44° C | 67% | 1013.6 hPa | 0 mm | - | - | - |
| 1787428447 | 30° C | 67% | 1013.7 hPa | 0 mm | - | - | - |
| 1787428146 | 30° C | 66% | 1013.7 hPa | 0 mm | - | - | - |
| 1787427846 | 30° C | 69% | 1013.7 hPa | 0 mm | - | - | - |
| 1787427545 | 30° C | 68% | 1013.8 hPa | 0 mm | - | - | - |
| 1787427244 | 30° C | 67% | 1013.9 hPa | 0 mm | - | - | - |
| 1787426943 | 30° C | 66% | 1014 hPa | 0 mm | - | - | - |
| 1787426642 | 29.44° C | 66% | 1014 hPa | 0 mm | - | - | - |
| 1787426341 | 29.44° C | 67% | 1014.1 hPa | 0 mm | - | - | - |
| 1787426041 | 28.89° C | 69% | 1014.1 hPa | 0 mm | - | - | - |
| 1787425740 | 28.89° C | 70% | 1014.2 hPa | 0 mm | - | - | - |
| 1787425439 | 28.89° C | 70% | 1014.3 hPa | 0 mm | - | - | - |
| 1787425138 | 28.89° C | 70% | 1014.4 hPa | 0 mm | - | - | - |
| 1787424837 | 28.89° C | 69% | 1014.4 hPa | 0 mm | - | - | - |
| 1787424536 | 28.89° C | 70% | 1014.5 hPa | 0 mm | - | - | - |
| 1787424235 | 28.89° C | 69% | 1014.5 hPa | 0 mm | - | - | - |
| 1787423935 | 28.89° C | 70% | 1014.6 hPa | 0 mm | - | - | - |
| 1787423634 | 28.89° C | 71% | 1014.7 hPa | 0 mm | - | - | - |
| 1787423333 | 28.89° C | 69% | 1014.8 hPa | 0 mm | - | - | - |
| 1787423032 | 28.89° C | 70% | 1014.9 hPa | 0 mm | - | - | - |
| 1787422731 | 28.33° C | 73% | 1014.9 hPa | 0 mm | - | - | - |
| 1787422430 | 28.33° C | 72% | 1015 hPa | 0 mm | - | - | - |
| 1787422129 | 27.78° C | 72% | 1015 hPa | 0 mm | - | - | - |
| 1787421828 | 27.78° C | 74% | 1015.1 hPa | 0 mm | - | - | - |
* Rain latest hour (hover to see other rain measurements)
** Current wind speed in m/s (hover to see current wind gust speed)